TimeCDT,TemperatureF,Dew PointF,Humidity,Sea Level PressureIn,VisibilityMPH,Wind Direction,Wind SpeedMPH,Gust SpeedMPH,PrecipitationIn,Events,Conditions,WindDirDegrees,DateUTC
12:53 AM,80.1,75.0,85,29.85,10.0,SSE,5.8,-,N/A,,Clear,160,2013-10-01 05:53:00
1:53 AM,79.0,75.9,90,29.85,10.0,SSE,5.8,-,N/A,,Clear,150,2013-10-01 06:53:00
2:53 AM,79.0,75.9,90,29.84,10.0,SSE,5.8,-,N/A,,Clear,150,2013-10-01 07:53:00
3:53 AM,78.1,75.9,93,29.82,10.0,SSE,3.5,-,N/A,,Clear,150,2013-10-01 08:53:00
4:53 AM,78.1,75.9,93,29.82,10.0,SE,5.8,-,N/A,,Scattered Clouds,140,2013-10-01 09:53:00
5:53 AM,78.1,75.9,93,29.82,10.0,SE,5.8,-,N/A,,Clear,130,2013-10-01 10:53:00
6:53 AM,78.1,75.9,93,29.84,10.0,ESE,5.8,-,N/A,,Clear,120,2013-10-01 11:53:00
7:53 AM,78.1,75.9,93,29.86,10.0,SE,6.9,-,N/A,,Mostly Cloudy,130,2013-10-01 12:53:00
8:53 AM,81.0,77.0,88,29.86,10.0,SSE,9.2,-,N/A,,Partly Cloudy,160,2013-10-01 13:53:00
9:21 AM,80.6,77.0,89,29.88,10.0,SSE,11.5,-,N/A,,Mostly Cloudy,150,2013-10-01 14:21:00
9:35 AM,82.4,75.2,79,29.88,10.0,SSE,12.7,-,N/A,,Scattered Clouds,150,2013-10-01 14:35:00
9:53 AM,82.9,75.0,77,29.88,10.0,SSE,12.7,-,N/A,,Partly Cloudy,150,2013-10-01 14:53:00
10:53 AM,87.1,75.0,67,29.88,10.0,SSE,13.8,18.4,N/A,,Clear,150,2013-10-01 15:53:00
11:53 AM,89.1,75.0,63,29.87,10.0,South,10.4,-,N/A,,Clear,180,2013-10-01 16:53:00
12:53 PM,91.0,73.9,57,29.86,10.0,South,11.5,-,N/A,,Clear,170,2013-10-01 17:53:00
1:53 PM,91.9,73.0,54,29.83,10.0,SSE,13.8,17.3,N/A,,Scattered Clouds,160,2013-10-01 18:53:00
2:53 PM,93.0,73.0,52,29.81,10.0,SE,11.5,19.6,N/A,,Scattered Clouds,140,2013-10-01 19:53:00
3:53 PM,91.9,72.0,52,29.79,10.0,SE,11.5,-,N/A,,Partly Cloudy,140,2013-10-01 20:53:00
4:53 PM,93.9,75.0,54,29.78,10.0,ESE,15.0,19.6,N/A,,Mostly Cloudy,120,2013-10-01 21:53:00
5:53 PM,91.0,73.9,57,29.78,10.0,SE,13.8,-,N/A,,Clear,130,2013-10-01 22:53:00
6:53 PM,88.0,73.0,61,29.80,10.0,SE,12.7,-,N/A,,Clear,140,2013-10-01 23:53:00
7:53 PM,84.9,73.9,69,29.82,10.0,SE,12.7,-,N/A,,Clear,140,2013-10-02 00:53:00
8:53 PM,82.9,73.9,74,29.86,10.0,SE,13.8,-,N/A,,Clear,140,2013-10-02 01:53:00
9:53 PM,82.0,75.0,79,29.87,10.0,SE,9.2,-,N/A,,Clear,140,2013-10-02 02:53:00
10:53 PM,80.1,75.0,85,29.89,10.0,ESE,10.4,-,N/A,,Clear,120,2013-10-02 03:53:00
11:33 PM,80.6,75.2,84,29.90,10.0,SE,9.2,-,N/A,,Mostly Cloudy,130,2013-10-02 04:33:00
11:51 PM,80.6,75.2,84,29.89,10.0,SE,10.4,-,N/A,,Scattered Clouds,140,2013-10-02 04:51:00
11:53 PM,80.1,75.9,87,29.89,10.0,SE,10.4,-,N/A,,Scattered Clouds,140,2013-10-02 04:53:00